Massena International Richards Field Massena US
ICAO: KMSS
IATA: MSS
Category: Medium
Scheduled Services: Yes

Elevation: 215 ft
TransAlt. 18000 ft.

Airport Communications:
BOSTON APP/DEP:135.25
ASOS:128.075
BURLINGTON RDO:122.2
CTAF/UNICOM:123

KMSS Zoom In..

If you have problems with the map follow the link
https://www.worldairports.se/pages/airport.php?
ICAO=KMSS

Runways:

(A) RW 05 length 5600 ft width 100 ft
ILS 108.70 / hdg 45

(B) RW 09 length 4000 ft width 100 ft
---- / hdg 90

(C) RW 23 length 5600 ft width 100 ft
---- / hdg 225

(D) RW 27 length 4000 ft width 100 ft
---- / hdg 270

Location; KMSS
Day. 18 / Time. 01.53 Zulu
* Altimeter: 30.07
* Temperature: -11° c. -12.2°f.
* Wind from: 030° Speed 06 kn.
Dewpoint: -15° c.
Visibility: 10 Statute Miles.
Clouds: Scattered 12000 ft.

KMSS 180153Z AUTO 03006KT 10SM SCT120 M11/M15 A3007 RMK AO2 SLP193 T11061150


Wind From 030°
Speed 06 kn.

 
 
jpsmedia.com for Web Design worldairports.se 2019   terms of use